Date,TemperatureHighF,TemperatureAvgF,TemperatureLowF,DewpointHighF,DewpointAvgF,DewpointLowF,HumidityHigh,HumidityAvg,HumidityLow,PressureMaxIn,PressureMinIn,WindSpeedMaxMPH,WindSpeedAvgMPH,GustSpeedMaxMPH,PrecipitationSumIn
2013-1-1,46.8,44.7,40.0,46.3,42.4,35.9,98,92,79,30.21,30.00,8,5,13,0.04
2013-1-2,40.2,35.5,29.1,32.5,30.4,26.5,91,82,72,30.34,30.25,5,2,0,0.00
2013-1-3,48.5,36.4,25.8,34.4,29.7,23.3,94,78,54,30.46,30.33,10,2,13,0.00
2013-1-4,50.3,43.0,38.2,39.3,35.7,32.7,91,76,55,30.52,30.36,6,1,8,0.05
2013-1-5,55.3,43.7,35.7,42.6,39.3,34.1,96,86,59,30.37,30.21,4,0,5,0.00
2013-1-6,57.7,41.2,28.6,38.9,31.6,27.2,98,73,33,30.39,30.28,7,1,12,0.01
2013-1-7,54.9,40.4,26.2,39.3,30.8,22.6,90,70,45,30.33,30.13,7,1,11,0.00
2013-1-8,54.4,47.8,44.3,54.1,45.3,38.2,99,91,75,30.09,29.83,15,2,22,1.20
2013-1-9,60.9,56.3,50.0,60.9,56.2,49.7,100,100,99,30.04,29.86,22,7,23,4.17
2013-1-10,61.4,56.5,51.0,61.4,54.1,47.0,100,92,70,29.99,29.91,11,4,14,0.05
2013-1-11,71.4,58.3,45.6,63.5,53.6,44.1,96,85,63,29.96,29.77,16,8,0,0.00
2013-1-12,74.4,61.7,38.4,70.2,59.2,34.6,99,92,74,29.89,29.61,15,9,0,0.01
2013-1-13,45.5,38.0,32.6,34.9,30.2,23.9,86,74,58,30.23,29.89,13,9,0,0.01
2013-1-14,45.2,34.0,29.0,32.2,26.2,23.1,81,73,57,30.30,30.18,13,9,20,0.00
2013-1-21,59.5,49.0,41.2,46.8,41.7,36.0,97,77,55,30.25,30.10,9,3,0,0.00
2013-1-22,67.7,49.9,36.2,52.5,43.4,33.5,91,79,57,30.31,30.18,8,2,0,0.00
2013-1-23,72.0,58.0,44.6,59.4,53.3,43.5,99,85,62,30.30,30.13,12,6,0,0.00
2013-1-24,77.6,65.1,54.8,64.5,59.9,54.0,100,85,60,30.18,30.01,13,8,0,0.00
2013-1-25,65.1,57.7,50.3,62.1,54.4,46.4,95,89,81,30.14,30.00,11,7,0,0.00
2013-1-26,53.6,50.4,47.3,53.3,48.7,45.3,99,94,84,30.19,30.08,6,3,0,0.00
2013-1-27,77.2,64.6,53.8,65.4,60.6,53.5,100,88,60,30.08,29.91,16,8,18,0.00
2013-1-28,79.9,70.7,65.4,68.0,65.3,63.6,95,84,61,29.98,29.81,22,13,27,0.00
2013-1-29,79.1,68.1,53.0,68.2,62.3,31.8,92,82,41,29.83,29.43,23,14,30,0.19
2013-1-30,53.7,46.4,34.1,36.3,29.6,20.7,72,53,28,30.16,29.71,16,6,22,0.00
2013-1-31,67.7,47.9,33.3,31.9,26.8,21.6,75,48,18,30.25,30.11,12,5,18,0.00
2013-2-1,64.2,47.3,34.4,41.8,35.4,27.7,77,64,38,30.36,30.15,8,3,13,0.00
2013-2-2,69.4,53.7,44.1,52.0,43.3,36.4,90,70,45,30.29,30.16,9,4,11,0.00
2013-2-3,69.6,53.1,35.8,43.2,35.1,29.6,88,55,24,30.30,29.98,8,2,10,0.00
2013-2-4,61.4,55.5,54.1,56.3,42.7,34.4,87,64,43,29.98,29.89,15,7,15,0.00
2013-2-5,76.3,63.4,54.2,61.3,58.3,53.4,100,85,53,29.95,29.83,4,1,0,0.00
2013-2-6,66.4,61.5,56.2,63.7,59.9,55.4,98,95,86,29.99,29.83,10,4,12,0.52
2013-2-7,74.8,61.7,57.2,64.5,59.0,56.6,99,92,70,29.90,29.78,13,7,16,0.01
2013-2-8,63.6,52.9,43.9,49.0,41.4,34.9,92,68,35,30.21,30.05,10,4,0,0.00
2013-2-9,64.3,52.0,46.4,63.1,50.4,45.2,97,94,87,30.11,29.75,12,6,17,0.04
2013-2-10,69.1,62.0,55.1,66.0,49.6,33.3,97,68,33,29.89,29.59,27,7,32,0.19
2013-2-11,54.1,51.0,47.3,47.7,45.4,40.4,96,82,62,30.10,29.94,10,3,12,0.22
2013-2-12,57.9,49.6,44.7,52.2,46.8,40.4,98,90,75,30.01,29.81,12,4,16,0.37
2013-2-13,44.6,41.0,38.2,40.1,36.6,34.9,88,84,80,30.14,30.01,12,5,17,0.00
2013-2-14,66.8,49.7,35.6,47.7,39.5,34.0,95,71,41,30.11,29.99,9,2,0,0.00
2013-2-15,52.0,47.2,37.2,40.5,34.7,26.1,79,62,45,30.37,30.06,13,5,0,0.00
2013-2-16,59.0,43.3,27.8,34.0,28.6,22.4,84,59,34,30.42,30.18,5,1,0,0.00
2013-2-17,68.4,54.0,39.0,48.7,38.2,32.5,78,58,32,30.17,29.92,18,10,0,0.00
2013-2-18,78.8,63.2,50.9,61.7,48.5,33.4,86,63,20,30.08,29.75,20,12,0,0.00
2013-2-19,62.5,51.8,39.0,35.5,30.3,21.2,77,47,22,30.28,30.09,14,4,0,0.00
2013-2-20,53.5,49.9,45.7,41.7,37.2,32.1,85,62,44,30.12,29.72,16,9,22,0.03
2013-2-21,70.4,57.3,50.5,59.2,47.7,29.1,99,76,22,29.72,29.61,14,9,20,0.35
2013-2-22,51.9,43.3,35.4,41.5,34.0,30.5,88,71,51,30.08,29.86,10,5,0,0.00
2013-2-23,57.4,44.0,31.2,36.2,32.2,27.1,88,65,43,30.06,29.91,5,2,0,0.00
2013-2-24,71.0,51.8,30.5,49.6,40.8,29.0,95,70,37,29.93,29.60,12,5,0,0.00
2013-2-25,61.3,54.2,42.4,55.8,41.4,30.3,93,64,33,29.68,29.49,19,11,31,0.01
2013-2-26,58.8,45.7,36.3,37.0,33.6,31.4,88,64,39,29.90,29.71,15,6,18,0.00
2013-2-27,59.1,44.5,32.4,37.3,30.7,23.0,92,63,25,30.20,29.86,13,5,17,0.00
2013-2-28,58.6,43.6,31.0,32.5,28.2,25.4,84,57,29,30.31,30.16,11,4,16,0.00
2013-3-1,57.0,44.1,32.7,34.9,29.6,24.8,74,58,35,30.29,30.15,8,2,11,0.00
2013-3-2,54.7,40.3,30.8,31.7,27.0,22.6,83,62,32,30.42,30.25,13,4,18,0.00
2013-3-3,69.9,51.3,32.0,45.8,33.3,24.7,75,52,32,30.25,29.83,19,9,24,0.00
2013-3-4,76.9,64.3,54.1,57.8,51.8,45.3,84,66,43,29.83,29.61,20,14,24,0.00
2013-3-5,64.2,51.2,38.8,57.9,31.7,20.3,87,50,24,30.34,29.66,17,10,26,0.00
2013-3-6,60.9,44.3,31.5,29.2,24.8,19.5,74,49,21,30.44,30.20,9,2,14,0.00
2013-3-7,54.8,41.3,35.6,40.2,29.1,24.7,72,62,52,30.24,30.15,8,1,9,0.00
2013-3-8,64.1,58.2,53.7,59.3,53.6,46.9,91,85,76,30.17,29.98,12,7,0,0.01
2013-3-9,71.7,65.5,60.0,64.1,60.6,56.5,96,85,75,29.98,29.64,21,13,32,0.31
2013-3-10,60.8,54.2,39.9,59.9,44.6,33.6,99,71,51,30.07,29.69,14,6,20,1.86
2013-3-11,59.8,44.0,34.4,33.9,29.3,19.8,91,61,24,30.12,30.00,10,3,13,0.00
2013-3-12,70.2,50.7,36.2,41.5,33.6,29.0,76,55,29,30.28,30.04,9,2,14,0.00
2013-3-13,71.2,54.6,42.0,45.1,39.4,33.8,79,59,32,30.42,30.28,10,2,13,0.00
2013-3-14,74.2,56.9,43.4,51.0,45.1,38.6,85,67,40,30.35,30.17,16,5,22,0.00
2013-3-15,77.8,62.4,50.4,56.4,50.7,46.2,92,69,34,30.18,29.92,17,10,22,0.00
2013-3-16,80.0,66.2,57.5,62.0,57.5,52.8,93,75,47,29.91,29.68,19,14,24,0.00
2013-3-17,76.6,68.2,60.2,64.4,61.7,57.3,91,80,62,29.76,29.61,15,8,19,0.00
2013-3-18,77.0,66.6,55.4,66.5,58.2,46.9,98,76,48,29.95,29.66,13,7,16,0.00
2013-3-19,69.6,56.5,44.4,52.2,46.7,40.0,87,71,51,30.08,29.91,15,5,19,0.08
2013-3-20,54.1,49.9,45.4,49.8,45.0,40.5,90,83,67,30.24,30.06,8,4,12,0.06
2013-3-21,69.6,59.7,45.6,60.4,49.6,36.3,87,70,54,30.01,29.57,20,10,0,0.00
2013-3-22,71.2,61.9,48.4,64.9,56.7,46.3,95,84,65,29.79,29.54,17,8,0,0.00
2013-3-23,60.7,53.1,47.7,56.3,50.3,46.1,96,90,81,29.80,29.63,11,5,0,0.03
2013-3-24,53.9,46.8,38.1,50.6,34.0,27.1,94,63,39,30.16,29.76,19,10,23,0.00
2013-3-25,38.9,34.4,29.7,27.4,24.8,22.8,76,68,62,30.34,30.16,4,1,6,0.00
2013-3-26,59.5,42.9,26.5,31.2,25.9,20.8,81,54,29,30.50,30.30,4,1,0,0.00
2013-3-27,69.3,52.1,34.1,44.7,36.8,27.2,80,59,35,30.32,30.10,15,6,0,0.00
2013-3-28,71.9,60.5,47.4,59.5,53.6,43.3,91,78,65,30.20,30.07,12,7,0,0.00
2013-3-29,73.8,65.5,55.3,61.4,58.3,53.6,95,79,63,30.15,30.02,13,8,0,0.00
2013-3-30,76.5,65.9,59.7,65.8,61.6,57.9,99,87,67,30.07,29.88,13,8,20,0.53
2013-3-31,76.0,69.1,64.5,66.6,62.9,58.9,94,81,62,29.91,29.80,14,8,0,0.00
2013-4-1,80.3,61.1,50.8,61.9,55.8,50.1,99,85,45,30.03,29.93,7,2,15,0.00
2013-4-2,72.7,65.4,60.6,65.1,62.4,58.0,97,90,76,29.98,29.83,12,4,20,0.17
2013-4-3,57.4,50.8,47.9,54.5,48.9,46.6,97,93,88,30.05,29.86,20,8,31,0.06
2013-4-4,48.4,45.1,42.5,46.2,42.8,41.2,98,92,80,30.19,30.08,10,6,15,0.03
2013-4-5,69.5,53.8,36.8,52.4,45.6,35.5,96,76,50,30.25,30.02,5,2,3,0.00
2013-4-6,74.1,60.4,51.1,61.6,53.4,48.0,91,79,63,30.02,29.83,18,11,19,0.00
2013-4-7,75.3,67.5,60.3,64.8,60.9,57.0,91,80,68,29.90,29.72,16,11,0,0.00
2013-4-8,71.5,66.6,64.6,65.5,62.0,59.3,90,85,77,29.76,29.71,16,12,24,0.00
2013-4-9,82.3,74.4,67.8,69.0,66.6,64.1,90,77,60,29.68,29.58,20,13,0,0.00
2013-4-10,73.9,57.5,40.0,69.7,54.6,39.2,98,90,71,29.93,29.63,17,10,19,0.16
2013-4-17,84.8,76.7,71.3,71.8,70.2,68.2,92,81,62,29.84,29.62,19,13,0,0.00
2013-4-18,74.2,57.0,45.7,71.1,50.8,37.9,98,81,60,30.11,29.55,19,12,0,0.24
2013-4-19,62.2,49.0,34.4,38.3,34.3,28.3,94,61,28,30.27,30.10,12,4,0,0.00
2013-4-20,70.2,54.1,34.5,43.1,37.5,31.8,91,58,27,30.20,30.00,14,6,0,0.00
2013-4-21,71.5,58.5,41.6,55.6,49.3,39.2,93,73,52,30.17,30.03,10,3,0,0.00
2013-4-22,79.3,64.4,48.0,62.0,56.0,46.6,97,76,52,30.08,29.82,13,5,0,0.00
2013-4-23,71.3,59.7,48.0,67.6,56.4,43.1,97,89,83,30.00,29.80,13,8,0,0.05
2013-4-24,52.7,42.9,40.2,41.9,38.7,35.4,93,86,66,30.28,30.14,12,9,20,0.00
2013-4-25,72.7,61.2,51.1,53.0,47.3,44.1,78,62,39,30.31,30.13,9,5,0,0.00
2013-4-26,78.8,69.1,56.0,69.1,60.5,48.2,88,74,59,30.14,29.92,14,7,0,0.00
2013-4-27,75.8,75.0,74.2,64.5,63.6,62.9,68,68,67,29.95,29.94,6,5,20,0.01
2013-4-28,83.7,68.5,52.3,67.4,61.3,51.2,98,80,51,30.01,29.81,6,2,0,0.00
2013-4-29,82.6,67.9,59.3,68.2,62.0,58.4,98,83,53,29.90,29.76,11,4,14,0.00
2013-4-30,65.2,60.3,55.2,64.6,58.9,54.1,99,95,87,29.80,29.76,7,2,7,0.00
2013-5-1,82.0,70.4,60.8,69.3,65.0,59.9,98,84,57,29.90,29.74,7,3,0,0.00
2013-5-2,66.8,53.8,43.1,63.5,49.3,38.7,96,85,72,30.30,29.88,16,10,0,0.00
2013-5-3,65.8,52.1,39.2,38.9,33.6,28.8,80,54,26,30.28,30.02,16,8,0,0.00
2013-5-4,76.8,56.0,39.1,38.8,34.9,32.4,77,50,23,30.01,29.85,10,5,11,0.00
2013-5-10,78.8,69.4,60.4,69.2,65.3,58.7,99,88,66,30.03,29.80,15,4,0,0.20
2013-5-11,77.4,68.0,59.4,62.0,56.9,48.7,94,71,37,30.11,29.93,11,4,0,0.00
2013-5-12,76.3,64.8,56.0,56.6,51.1,44.9,86,64,33,30.22,30.10,8,2,0,0.00
2013-5-13,84.4,68.1,51.0,55.8,50.5,45.0,82,57,29,30.23,30.10,9,3,0,0.00
2013-5-14,84.5,72.3,58.2,66.9,60.2,55.7,95,69,39,30.14,29.95,13,7,0,0.00
2013-5-15,78.2,71.9,67.4,71.5,68.2,65.5,96,88,79,30.03,29.72,17,12,0,0.04
2013-5-16,73.1,64.5,61.1,68.9,63.3,60.5,99,96,85,29.85,29.70,17,9,23,0.63
2013-5-17,84.8,75.1,72.2,74.9,71.8,70.3,96,90,72,29.83,29.74,15,9,16,0.00
2013-5-18,90.9,79.9,70.4,76.0,71.2,68.1,95,76,58,29.87,29.73,15,10,0,0.00
2013-5-19,90.8,79.7,70.1,74.1,69.8,66.1,92,73,52,29.81,29.66,17,13,0,0.00
2013-5-20,89.6,79.8,72.2,73.7,71.2,69.2,91,76,56,29.79,29.64,16,11,0,0.00
2013-5-21,87.5,74.9,59.1,74.3,69.6,58.5,99,85,63,29.83,29.59,18,11,21,0.54
2013-5-22,86.2,69.1,55.8,69.8,62.8,55.5,100,83,46,29.90,29.79,5,1,6,0.01
2013-5-23,86.3,76.5,66.5,75.9,72.0,64.4,98,87,69,30.00,29.84,12,4,15,0.00
2013-5-24,85.2,77.1,70.7,75.6,72.8,69.8,98,87,69,30.09,29.93,11,4,12,0.00
2013-5-25,71.5,71.3,71.0,70.6,70.3,69.8,97,97,96,30.04,30.03,4,2,4,0.18
2013-5-26,86.3,77.9,71.1,73.6,71.2,69.6,97,81,62,30.05,29.90,14,7,17,0.00
2013-5-27,85.1,74.6,69.7,72.2,69.7,67.6,95,85,65,29.96,29.90,15,9,23,0.00
2013-5-28,88.1,77.8,71.7,71.3,69.4,67.8,90,76,56,29.86,29.73,16,12,22,0.00
2013-5-29,83.4,76.5,73.5,74.2,71.5,69.4,93,85,74,29.79,29.68,17,11,22,0.19
2013-5-30,87.3,80.2,74.5,75.5,73.2,70.7,90,80,66,29.78,29.66,18,11,23,0.00
2013-5-31,90.8,82.9,75.4,76.0,73.9,72.5,93,76,59,29.81,29.65,15,11,20,0.00
2013-6-1,93.5,82.2,74.8,76.6,73.5,70.6,92,76,54,29.87,29.69,15,9,22,0.00
2013-6-2,84.2,74.0,63.6,70.6,64.2,57.1,97,74,44,30.01,29.87,10,3,16,0.48
2013-6-3,91.0,74.3,58.5,69.3,62.0,55.9,93,69,40,29.95,29.79,6,1,8,0.00
2013-6-4,92.0,78.6,66.6,73.0,69.0,64.2,94,75,47,29.90,29.74,12,5,16,0.00
2013-6-5,91.3,79.6,70.3,72.9,70.0,68.1,96,75,47,29.86,29.68,16,6,20,0.00
2013-6-6,81.6,74.0,68.8,74.0,68.9,65.5,96,85,67,29.89,29.75,13,4,22,0.10
2013-6-7,83.7,72.8,63.1,65.6,61.3,55.9,96,70,40,29.96,29.83,8,4,11,0.00
2013-6-8,90.9,76.5,58.4,67.9,61.7,57.2,97,64,36,29.91,29.75,8,3,11,0.00
2013-6-9,88.6,77.4,69.7,72.8,69.6,66.0,96,78,53,29.89,29.80,10,3,12,0.00
2013-6-10,98.3,81.8,67.5,73.2,67.8,58.2,98,68,28,29.94,29.84,8,4,12,0.00
2013-6-11,94.3,82.0,73.1,74.6,72.1,68.3,96,74,48,29.99,29.88,14,6,16,0.00
2013-6-12,95.9,83.8,72.9,75.2,72.2,69.0,96,71,43,30.01,29.88,9,6,14,0.00
2013-6-13,97.0,83.7,71.0,75.7,72.0,69.4,96,71,42,30.01,29.83,8,4,10,0.00
2013-6-14,97.8,84.8,70.4,75.5,71.0,67.9,93,66,42,29.94,29.81,7,3,10,0.00
2013-6-15,90.6,81.8,74.2,76.2,71.7,64.8,86,72,58,29.95,29.83,8,3,20,0.00
2013-6-16,96.3,84.3,73.4,75.3,71.2,67.7,93,68,40,29.98,29.81,9,4,12,0.00
2013-6-17,95.1,84.3,75.0,74.2,72.3,68.1,91,69,49,29.99,29.79,12,6,16,0.00
2013-6-18,87.8,78.8,71.4,74.3,71.8,68.4,94,80,62,29.94,29.83,11,4,13,0.21
2013-6-19,96.5,79.8,68.4,76.4,71.6,67.8,99,79,46,29.93,29.83,12,3,17,0.01
2013-6-20,96.9,85.1,74.4,74.2,71.1,66.4,91,66,39,30.01,29.88,13,7,19,0.00
2013-6-21,96.9,84.6,71.1,74.5,70.1,67.0,96,65,40,30.03,29.91,12,7,17,0.00
2013-6-22,97.4,85.0,72.6,74.7,70.2,67.3,93,64,40,30.00,29.83,12,8,15,0.00
2013-6-23,97.2,85.8,74.8,74.3,70.6,66.2,93,63,38,29.95,29.82,13,9,16,0.00
2013-6-24,97.8,86.1,75.1,74.5,70.4,66.9,92,62,37,29.98,29.83,14,9,19,0.00
2013-6-25,99.0,87.2,75.4,74.8,69.9,64.7,92,60,34,29.95,29.79,16,11,22,0.00
2013-6-26,99.8,86.3,75.5,74.2,70.9,66.9,90,63,37,29.92,29.80,14,10,20,0.00
2013-6-27,100.6,87.3,74.5,74.2,69.1,61.9,93,59,29,29.99,29.81,11,6,16,0.00
2013-6-28,104.1,87.9,74.8,72.0,67.7,60.7,83,54,26,29.91,29.72,9,4,10,0.00
2013-6-29,100.2,87.9,72.1,71.6,66.7,59.2,86,53,28,29.81,29.71,11,4,15,0.00
2013-6-30,94.6,81.7,68.4,69.6,60.5,56.1,83,52,29,29.88,29.75,11,4,16,0.04
2013-7-1,88.6,77.6,62.6,63.2,58.4,55.0,82,54,34,29.96,29.86,10,4,16,0.00
2013-7-2,90.2,78.1,64.5,60.5,55.7,46.8,82,50,24,30.02,29.93,8,2,16,0.00
2013-7-3,94.2,77.4,61.4,62.9,56.0,51.6,82,51,28,30.00,29.86,7,1,12,0.00
2013-7-4,96.7,80.4,65.2,69.1,61.9,52.4,89,58,24,29.96,29.82,15,3,20,0.00
2013-7-5,98.3,82.4,65.3,69.0,62.2,58.3,85,55,30,29.95,29.80,9,2,13,0.00
2013-7-6,84.8,74.7,69.5,70.1,64.7,62.2,83,72,58,29.90,29.87,5,0,6,0.00
2013-7-7,98.9,85.5,70.3,74.4,69.6,64.5,90,62,37,29.94,29.83,13,4,0,0.00
2013-7-8,91.6,84.0,76.9,74.7,71.8,67.8,86,68,51,30.04,29.92,15,6,0,0.00
2013-7-9,100.1,84.7,74.9,74.9,71.0,66.0,92,67,35,30.09,29.92,10,5,13,0.00
2013-7-10,102.5,89.5,76.5,74.0,69.9,65.3,87,56,31,30.02,29.84,9,5,12,0.00
2013-7-11,102.5,85.7,75.9,73.9,71.8,67.7,91,66,35,29.92,29.80,24,4,28,0.22
2013-7-12,102.0,85.4,71.2,73.8,70.3,66.4,97,66,33,29.92,29.80,8,2,12,0.00
2013-7-13,100.7,87.4,73.1,74.3,68.4,61.1,91,57,32,29.93,29.79,13,3,15,0.00
2013-7-14,78.0,70.3,66.2,69.7,66.0,59.0,97,87,56,29.95,29.81,6,1,9,0.87
2013-7-15,76.0,70.7,67.2,73.2,69.5,66.3,98,96,90,30.03,29.92,7,1,8,1.47
2013-7-16,90.1,76.3,71.1,75.9,72.0,69.2,98,88,53,30.12,30.01,16,3,25,0.39
2013-7-17,89.3,76.9,71.4,75.7,72.9,70.5,98,89,62,30.16,30.08,12,3,12,0.12
2013-7-18,73.0,71.9,70.4,72.4,71.3,69.7,99,98,97,30.12,30.10,0,0,0,0.00
2013-7-20,93.7,79.3,72.1,74.8,72.1,69.7,96,81,46,29.94,29.81,13,2,0,0.40
2013-7-21,94.8,81.8,72.8,76.8,73.6,71.0,97,78,48,29.90,29.80,15,4,0,0.00
2013-7-22,96.0,85.6,76.4,76.6,74.5,72.4,94,72,48,29.94,29.82,11,6,0,0.00
2013-7-23,97.3,86.1,77.1,77.1,73.1,66.1,92,69,37,29.94,29.78,11,7,0,0.00
2013-7-24,95.5,84.4,75.9,76.4,74.4,69.1,92,74,51,29.97,29.82,8,3,0,0.00
2013-7-25,96.9,84.9,74.0,76.3,74.3,72.0,97,73,48,29.97,29.90,11,2,0,0.00
2013-7-26,92.3,89.1,81.4,73.8,73.2,71.9,76,60,55,29.83,29.78,16,7,21,0.00
2013-7-27,85.1,76.0,70.5,75.5,72.0,68.7,99,88,64,29.96,29.85,8,2,11,0.00
2013-7-28,94.0,80.0,67.6,76.6,71.9,66.6,97,78,52,29.93,29.81,6,2,9,0.00
2013-7-29,97.1,84.8,75.2,76.2,71.8,62.7,96,68,36,29.95,29.86,14,6,17,0.00
2013-7-30,98.0,84.9,76.6,75.5,71.5,64.5,89,66,39,30.04,29.90,12,6,17,0.00
2013-7-31,98.5,85.2,75.9,74.3,72.0,67.5,91,67,43,30.03,29.85,8,4,13,0.00
2013-8-1,102.8,87.7,75.2,74.4,71.0,66.4,83,60,32,29.95,29.82,7,2,10,0.00
2013-8-2,100.3,88.5,75.5,73.2,70.6,67.3,85,58,36,29.91,29.81,8,3,13,0.00
2013-8-3,99.6,86.9,74.4,75.7,70.6,65.6,89,61,34,29.96,29.87,8,3,12,0.00
2013-8-4,98.7,86.7,76.2,76.3,73.2,69.6,90,66,40,30.02,29.86,7,3,12,0.00
2013-8-5,100.0,87.3,76.4,74.3,70.6,65.5,85,61,34,29.97,29.80,11,4,15,0.00
2013-8-6,101.7,88.3,75.4,74.8,70.9,64.1,88,60,32,29.88,29.73,10,5,15,0.00
2013-8-7,102.6,88.2,76.6,75.3,71.2,64.4,89,60,33,29.86,29.71,10,6,14,0.00
2013-8-8,102.7,87.6,75.3,75.2,69.5,59.8,93,59,26,29.84,29.71,9,4,13,0.00
2013-8-9,101.9,86.3,72.9,74.3,66.6,57.0,93,57,24,29.91,29.79,8,2,9,0.00
2013-8-10,102.8,87.6,72.7,73.5,68.2,61.0,84,56,30,29.98,29.86,18,1,22,0.00
2013-8-11,100.6,86.0,72.3,76.4,72.1,68.9,95,67,39,30.02,29.89,11,2,11,0.00
2013-8-12,98.9,86.0,73.7,74.6,70.7,67.4,93,63,38,30.01,29.86,8,2,11,0.00
2013-8-13,99.3,87.4,77.5,75.1,72.3,68.9,82,62,39,29.97,29.81,9,3,14,0.00
2013-8-14,93.1,81.2,74.4,77.4,74.4,72.3,97,81,52,29.95,29.85,11,2,17,0.08
2013-8-15,89.5,78.9,72.6,73.3,71.0,66.7,98,79,53,30.00,29.89,7,1,9,0.03
2013-8-16,91.0,78.9,68.4,70.7,66.0,63.1,88,67,40,29.99,29.89,7,1,11,0.00
2013-8-17,76.3,76.0,76.0,64.8,64.7,64.2,68,68,68,30.00,29.99,4,1,4,0.00
2013-8-18,92.5,75.6,62.6,67.3,61.3,58.4,89,65,33,30.04,29.93,7,1,14,0.00
2013-8-19,96.5,80.0,62.1,69.6,62.0,58.0,91,58,30,30.02,29.87,7,1,9,0.00
2013-8-20,96.8,82.7,68.0,69.2,63.6,58.6,86,56,30,30.00,29.89,9,2,0,0.00
2013-8-21,95.4,81.8,67.5,71.2,68.6,64.5,93,67,41,30.05,29.92,7,2,9,0.00
2013-8-22,98.3,85.4,73.5,74.3,70.6,67.5,86,64,37,30.05,29.86,11,1,0,0.00
2013-8-23,97.6,81.3,73.8,74.4,71.0,69.3,88,73,43,29.98,29.92,5,0,8,0.00
2013-8-24,99.7,86.2,75.3,74.0,70.4,67.0,84,62,35,29.99,29.89,13,2,0,0.00
2013-8-25,92.7,78.7,70.7,72.8,69.8,67.7,91,75,48,30.07,29.98,11,2,13,0.00
2013-8-26,94.5,81.9,71.0,72.7,70.3,67.0,92,70,42,30.10,29.98,16,5,0,0.00
2013-8-27,94.1,80.2,72.7,73.1,70.3,66.6,95,74,43,30.08,29.98,10,2,0,0.00
2013-8-28,97.9,83.2,68.6,74.6,68.4,65.5,93,65,36,30.06,29.93,6,1,0,0.00
2013-8-29,102.5,87.6,76.0,70.9,66.9,63.1,75,53,29,30.01,29.87,5,1,0,0.00
2013-8-30,103.8,87.5,73.3,71.0,66.1,61.0,81,53,27,29.95,29.80,7,1,0,0.00
2013-8-31,103.6,89.1,76.0,72.7,68.2,63.4,83,54,28,29.86,29.73,6,2,0,0.00
2013-9-1,103.4,89.3,77.7,72.5,70.0,66.3,76,56,32,29.85,29.71,9,3,11,0.00
2013-9-2,96.0,84.3,77.2,73.8,70.3,66.9,81,64,45,29.91,29.79,9,2,13,0.00
2013-9-3,102.0,86.5,71.9,74.1,68.5,64.8,88,59,32,29.92,29.79,7,1,9,0.00
2013-9-4,101.8,86.4,71.8,72.1,69.0,64.8,88,60,32,29.98,29.86,10,2,12,0.00
2013-9-5,100.0,85.8,72.6,73.8,70.3,64.3,90,63,34,30.05,29.92,9,1,12,0.06
2013-9-6,100.2,87.1,71.8,75.1,68.5,62.8,93,58,31,30.03,29.88,6,1,9,0.00
2013-9-7,100.1,83.1,71.4,75.2,69.4,62.0,88,67,32,29.99,29.85,17,2,20,0.00
2013-9-8,97.5,81.9,67.6,74.0,68.3,64.1,97,68,35,29.96,29.81,8,2,10,0.00
2013-9-9,96.5,81.2,68.0,73.2,68.7,65.5,95,69,38,29.96,29.85,12,3,13,0.00
2013-9-10,94.2,81.8,71.2,74.6,68.3,59.8,92,67,38,30.03,29.94,10,3,15,0.00
2013-9-11,97.0,82.7,68.1,73.7,67.5,63.2,94,64,36,30.07,29.93,9,2,15,0.00
2013-9-12,98.0,83.8,70.8,72.4,66.6,61.0,86,59,32,30.02,29.85,7,1,11,0.00
2013-9-13,99.6,84.1,69.9,69.9,65.8,61.3,81,57,32,29.91,29.75,7,1,8,0.00
2013-9-14,96.6,84.3,74.5,71.1,67.5,64.8,82,59,38,29.89,29.78,8,2,11,0.00
2013-9-15,96.5,83.7,71.6,73.9,67.9,65.0,86,61,39,29.97,29.88,9,2,12,0.00
2013-9-16,95.5,83.5,71.5,74.4,66.7,62.2,93,60,35,30.03,29.91,9,2,13,0.00
2013-9-17,95.1,83.8,71.2,72.5,67.0,62.7,81,59,38,30.02,29.87,7,2,12,0.00
2013-9-18,97.1,85.8,74.1,73.7,68.1,65.0,81,57,37,29.97,29.82,9,3,16,0.00
2013-9-19,94.0,80.6,72.5,75.6,71.9,68.4,98,76,48,29.93,29.78,18,2,18,1.64
2013-9-20,75.1,72.7,69.7,74.8,72.3,69.1,100,99,95,29.85,29.75,11,2,18,6.41
2013-9-21,82.8,71.4,62.2,69.7,58.6,47.1,96,68,30,29.91,29.80,11,4,19,0.00
2013-9-22,82.1,68.2,54.6,59.3,54.5,50.9,94,65,34,29.90,29.75,9,1,13,0.00
2013-9-23,87.3,72.0,56.7,65.8,59.2,53.5,93,68,40,29.83,29.71,5,0,8,0.00
2013-9-24,92.7,78.2,64.4,71.6,64.2,59.8,97,67,34,29.88,29.78,6,1,9,0.00
2013-9-25,94.0,77.3,59.2,61.7,56.8,51.4,87,54,25,29.86,29.73,2,0,6,0.00
2013-9-26,92.5,78.7,66.9,62.9,59.7,55.6,78,55,33,29.85,29.75,10,3,12,0.00
2013-9-27,87.8,77.3,66.9,75.6,69.9,61.8,90,79,65,29.90,29.80,10,4,15,0.00
2013-9-28,86.2,76.4,71.2,78.1,73.8,70.3,99,92,75,29.97,29.83,8,3,12,0.66
2013-9-29,80.6,70.2,64.2,70.6,64.7,61.0,98,84,57,30.00,29.87,4,1,7,0.01
2013-9-30,85.1,73.6,63.0,69.8,63.8,56.4,94,74,47,29.89,29.77,4,0,5,0.00
2013-10-1,89.5,77.2,64.5,73.9,70.5,62.7,99,82,51,29.90,29.80,7,2,10,0.00
2013-10-2,86.8,77.5,71.6,76.0,72.5,70.7,98,86,66,29.93,29.82,10,3,14,0.00
2013-10-3,89.4,79.2,72.8,75.5,72.9,70.9,97,83,57,29.89,29.78,9,4,12,0.00
2013-10-4,88.4,79.1,72.8,74.2,71.8,69.4,96,80,58,29.87,29.79,10,5,13,0.00
2013-10-5,81.8,68.4,57.7,73.9,61.8,46.0,97,80,61,30.05,29.83,12,5,17,0.00
2013-10-6,76.2,62.8,50.4,51.8,44.0,33.9,93,57,22,30.10,30.00,11,2,15,0.00
2013-10-7,81.9,64.4,49.0,48.1,42.0,38.4,71,48,22,30.12,30.01,4,0,7,0.00
2013-10-8,81.6,63.9,46.3,52.8,47.6,41.2,92,60,30,30.08,29.96,3,0,8,0.00
2013-10-9,82.5,66.0,52.3,60.4,55.6,49.8,95,72,42,30.05,29.93,7,2,10,0.00
2013-10-10,83.7,69.5,55.5,66.4,61.1,54.0,97,76,51,30.02,29.85,9,2,13,0.00
2013-10-11,86.0,74.8,65.4,73.4,69.2,63.6,96,84,66,29.92,29.79,11,3,18,0.19
2013-10-12,86.6,76.8,73.0,78.0,74.2,71.5,98,92,74,29.95,29.85,6,3,8,0.01
2013-10-13,76.7,70.8,67.7,70.7,68.6,66.5,99,93,79,30.14,29.98,9,1,0,0.10
2013-10-14,75.3,71.1,69.1,72.9,70.0,68.3,99,96,89,30.08,29.89,13,2,16,0.49
2013-10-15,74.9,68.1,55.7,73.7,67.2,55.1,98,97,92,29.99,29.86,9,4,14,2.40
2013-10-16,60.4,55.8,53.3,56.9,54.6,53.0,100,96,86,30.05,29.94,9,3,14,0.84
2013-10-17,70.7,57.9,48.0,54.1,50.8,46.1,98,79,49,30.12,29.96,0,0,1,0.00
2013-10-18,71.1,59.7,50.3,60.2,54.7,49.5,98,85,61,30.00,29.88,9,1,13,0.01
2013-10-19,63.5,53.1,43.3,57.9,44.6,40.6,94,75,45,30.18,30.00,11,4,17,0.00
2013-10-20,71.6,54.5,40.0,50.9,45.7,38.0,96,75,42,30.07,29.88,10,2,13,0.00
2013-10-21,77.5,63.7,53.4,67.1,58.3,50.8,97,83,69,30.04,29.88,8,1,14,0.00
2013-10-22,74.6,59.7,46.6,54.7,46.8,41.7,91,67,32,30.14,30.02,6,1,10,0.00
2013-10-23,81.8,63.9,47.9,56.2,49.8,44.5,88,64,34,30.11,30.02,3,0,4,0.00
2013-10-24,81.8,65.9,50.2,55.9,50.6,46.2,87,61,34,30.20,30.06,2,0,3,0.00
2013-10-25,71.3,59.8,51.1,56.1,53.2,49.7,96,80,58,30.35,30.20,8,2,12,0.00
2013-10-26,78.0,64.2,51.9,65.5,58.2,48.9,95,81,64,30.21,29.98,13,4,18,0.12
2013-10-27,68.1,61.5,57.0,63.7,59.4,-99.9,100,95,80,30.09,29.98,9,-6,13,0.25
2013-10-28,78.6,68.2,56.2,70.4,64.9,55.6,100,90,72,30.08,29.96,6,2,11,0.00
2013-10-29,80.0,71.2,65.6,73.3,68.7,65.0,99,92,76,30.05,29.95,8,2,12,0.00
2013-10-30,71.6,68.8,65.6,71.6,68.3,65.6,100,99,92,30.02,29.77,10,4,11,2.38
2013-10-31,75.9,68.0,53.0,70.4,56.9,42.4,100,73,31,29.85,29.65,13,4,18,0.14
2013-11-1,77.6,60.8,48.5,58.8,51.0,46.7,96,73,37,30.03,29.76,11,2,16,0.00
2013-11-2,67.1,56.2,44.5,49.9,43.4,37.6,87,65,34,30.25,30.03,9,2,15,0.00
2013-11-3,66.4,50.9,38.2,47.8,42.7,37.2,97,77,46,30.19,30.03,9,2,12,0.00
2013-11-4,62.7,58.0,52.2,62.4,56.0,49.1,100,93,80,30.07,29.99,8,0,0,1.21
2013-11-5,70.6,65.8,62.1,69.4,65.3,61.8,100,98,93,30.01,29.90,8,2,10,0.15
2013-11-6,70.0,57.1,45.7,69.8,54.3,42.7,100,91,69,30.32,29.92,11,4,18,0.27
2013-11-7,62.4,48.7,41.7,43.9,40.8,38.4,92,77,44,30.48,30.32,10,2,15,0.00
2013-11-8,63.2,53.4,43.6,49.7,46.3,42.5,98,79,50,30.38,30.12,2,0,0,0.00
2013-11-9,67.5,58.0,53.2,56.4,50.9,46.4,91,78,65,30.18,30.09,8,1,0,0.00
2013-11-10,65.6,56.7,47.3,52.4,50.1,45.7,94,80,52,30.31,30.18,0,0,0,0.00
2013-11-11,71.6,56.8,44.1,56.6,50.9,43.3,99,83,57,30.27,30.14,0,0,0,0.00
2013-11-12,58.4,51.0,37.6,56.1,43.0,25.8,97,76,46,30.64,30.25,15,6,22,0.01
2013-11-13,52.2,38.7,29.4,31.5,28.1,24.6,89,68,37,30.67,30.38,1,0,6,0.00
2013-11-14,61.6,46.7,28.2,48.3,37.8,25.6,94,73,43,30.38,30.04,9,1,14,0.00
2013-11-15,73.6,60.4,51.9,61.6,55.4,48.5,95,84,65,30.03,29.82,9,2,10,0.00
2013-11-16,75.1,68.1,61.6,70.3,65.7,60.0,98,92,82,29.85,29.67,14,8,19,0.00
2013-11-17,86.5,74.2,61.1,72.9,65.2,55.2,95,76,40,29.92,29.70,11,4,14,0.00
2013-11-18,74.6,64.6,56.0,54.9,44.5,40.7,76,50,31,30.12,29.93,11,2,15,0.00
2013-11-19,68.7,58.6,50.7,45.2,42.3,37.5,75,56,36,30.15,29.99,11,2,12,0.00
2013-11-20,64.2,56.1,40.3,59.4,48.8,37.7,94,77,61,30.01,29.89,7,1,12,0.00
2013-11-21,78.0,68.1,48.9,72.9,66.6,48.1,99,95,83,30.08,29.91,15,2,17,0.22
2013-11-22,48.3,37.7,35.3,47.8,37.2,34.5,99,98,94,30.40,30.10,14,9,21,0.57
2013-11-23,37.3,36.7,36.5,37.0,36.4,35.6,99,99,97,30.49,30.39,10,7,16,0.08
2013-11-24,37.9,35.0,32.7,33.8,30.8,29.0,95,84,76,30.53,30.35,12,5,0,0.24
2013-11-25,38.1,35.1,32.5,37.1,34.1,31.3,97,96,93,30.35,30.11,10,1,14,0.68
2013-11-26,50.1,40.3,35.3,38.9,34.6,30.3,97,81,57,30.32,30.10,13,5,17,0.00
2013-11-27,45.8,36.5,27.4,30.6,24.9,21.8,89,65,39,30.47,30.33,8,1,14,0.00
2013-11-28,53.6,38.1,28.6,33.8,29.5,24.9,95,74,41,30.47,30.36,0,0,3,0.00
2013-11-29,59.5,42.7,27.7,43.6,36.6,26.5,98,81,52,30.52,30.35,0,0,0,0.00
2013-11-30,58.0,46.2,41.2,48.5,41.5,37.3,91,84,68,30.36,30.33,5,0,6,0.00
2013-12-1,67.7,60.0,52.7,60.2,56.6,51.7,97,89,76,30.16,29.87,10,2,0,0.00
2013-12-2,75.0,57.1,45.3,56.9,49.8,44.8,99,80,41,29.86,29.63,0,0,0,0.01
2013-12-3,78.5,59.3,42.9,56.7,49.5,41.3,97,73,32,29.63,29.51,9,2,0,0.00
2013-12-4,75.1,64.4,57.8,66.2,61.3,55.3,98,90,73,29.77,29.59,10,4,0,0.00
2013-12-5,61.0,39.2,30.7,57.4,32.9,26.7,95,78,68,30.13,29.77,12,8,19,0.00
2013-12-6,32.9,29.4,26.9,31.6,27.5,23.6,97,92,87,30.47,30.06,11,6,19,0.21
2013-12-7,26.9,24.7,23.4,24.1,21.6,20.7,91,88,86,30.50,30.45,11,8,14,0.00
2013-12-8,36.9,31.1,26.9,35.6,30.0,25.9,97,96,93,30.26,30.05,0,0,0,0.01
2013-12-9,36.9,33.8,30.8,35.6,31.9,27.0,96,93,85,30.40,30.12,10,3,17,0.00
2013-12-10,40.4,29.4,21.6,27.3,23.0,18.6,91,78,56,30.54,30.37,8,1,11,0.00
2013-12-11,51.9,36.9,25.7,35.1,29.2,22.8,90,75,48,30.57,30.35,1,0,5,0.00
2013-12-12,50.9,37.6,26.3,35.7,31.5,24.7,94,80,53,30.61,30.33,0,0,0,0.00
2013-12-13,46.7,42.9,37.1,46.4,40.0,33.2,99,90,77,30.33,29.83,8,1,12,0.14
2013-12-14,46.6,41.5,32.3,46.3,39.1,28.6,99,91,75,30.33,29.80,13,5,20,0.00
2013-12-15,59.0,41.4,27.0,38.7,32.7,24.5,91,74,41,30.39,30.25,0,0,0,0.00
2013-12-16,63.8,47.8,35.0,41.7,36.8,31.4,87,68,41,30.28,30.16,9,2,12,0.00
2013-12-17,73.3,51.8,36.9,43.3,38.6,33.2,89,65,33,30.30,30.20,4,0,5,0.00
2013-12-18,67.4,52.8,38.1,52.1,44.8,34.6,91,75,54,30.25,30.02,11,3,14,0.00
2013-12-19,74.6,62.3,48.9,63.9,57.7,48.0,98,86,64,30.02,29.74,17,7,21,0.00
2013-12-20,71.6,63.4,40.8,66.7,60.3,39.7,96,90,80,29.82,29.69,14,5,18,0.17
2013-12-21,59.0,46.2,36.1,57.9,45.8,35.6,100,99,92,29.77,29.55,9,2,15,1.22
2013-12-22,45.7,39.5,32.8,45.7,35.5,28.5,100,86,69,30.37,29.77,10,4,15,0.00
2013-12-23,38.8,30.4,27.3,31.9,27.4,25.3,94,88,77,30.53,30.35,6,0,10,0.00
2013-12-24,54.8,38.0,26.1,38.9,32.1,24.9,97,81,50,30.53,30.27,6,1,0,0.00
2013-12-25,57.8,43.8,31.9,47.7,38.3,29.3,93,82,68,30.39,30.27,0,0,0,0.00
2013-12-26,54.2,39.5,31.6,41.1,35.4,30.3,96,86,61,30.43,30.31,0,0,0,0.00
2013-12-27,59.0,44.3,33.6,44.8,38.8,32.3,96,83,58,30.45,30.32,0,0,0,0.00
2013-12-28,58.6,42.0,34.7,42.8,36.5,32.7,96,83,46,30.32,30.10,1,0,1,0.00
2013-12-29,54.5,42.7,31.6,48.5,38.4,27.0,95,85,70,30.28,29.95,12,2,19,0.00
2013-12-30,42.0,34.1,28.5,28.8,26.3,22.6,84,73,57,30.42,30.25,8,1,12,0.00
2013-12-31,55.0,38.9,27.7,33.4,29.3,24.6,89,71,40,30.47,30.23,0,0,1,0.00
2014-1-1,66.6,49.2,32.6,53.3,41.9,30.1,92,77,60,30.23,29.91,15,8,19,0.00
2014-1-2,43.4,31.8,26.2,35.0,25.3,21.2,81,77,72,30.42,30.14,13,8,17,0.00